114  
ASUS46 KPDT 262025  
RWRPDT  
PENDLETON REGIONAL WEATHER ROUNDUP  
NATIONAL WEATHER SERVICE PENDLETON OREGON  
100 PM PDT MON SEP 26 2016  
 
NOTE: FAIR INDICATES FEW OR NO CLOUDS BELOW 12,000 FEET WITH NO  
SIGNIFICANT WEATHER AND/OR S TO VISIBILITY
.  
 
# INDICATES UNOFFICIAL STATION AND DATA  
 
WAZ520-262110-  
EAST SLOPES OF WASHINGTON CASCADES  
 
CITY SKY/WX TMP DP RH WIND PRES REMARKS
 
#CLE ELUM HS N/A 74 45 35 SE6 30.08F  
#CLE ELUM 2NW N/A 74 44 34 E3 N/A  
#CLE ELUM LAKE N/A 75 50 41 CALM 30.03F  
#GLENWOOD N/A 80 54 41 CALM 30.07F  
#MANASTASH CYN N/A 73 47 40 CALM 30.12F  
#NELSON 3SW N/A 70 50 49 CALM 30.27F  
#NILE N/A 77 50 39 S2 29.34F  
#RONALD 2NW N/A 73 N/A N/A SE1 30.17F  
#TEANAWAY 4NE N/A 78 54 43 CALM N/A  
#TROUT LAKE 1NE N/A 78 50 38 E3 30.06F  

 
 
WAZ521-262110-  
SIMCOE HIGHLANDS  
 
CITY SKY/WX TMP DP RH WIND PRES REMARKS
 
#CENTERVILLE 1SWN/A 76 47 36 SE7 30.03F  
#GOLDENDALE 1NE N/A 79 30 17 SE3 N/A  
#GOLDENDALE 4W N/A 81 54 39 S3 30.13F  
#GOODNOE HILLS N/A 81 44 27 E3 N/A  
#LYLE 6NE N/A 76 50 40 S5 30.02F  

 
 
WAZ026-262110-  
KITTITAS VALLEY  
 
CITY SKY/WX TMP DP RH WIND PRES REMARKS
 
ELLENSBURG AP SUNNY 79 48 34 E5 30.13F  
#ELLENSBURG CWU N/A 76 51 42 E1 30.02F  
#ELLENSBURG 3NE N/A 75 55 50 CALM 30.11F  
#ELLENSBURG N/A 83 51 33 E2 N/A  
#KITTITAS 4N N/A 76 51 42 E1 30.12F  
#KITTITAS 3S N/A 73 54 51 CALM 30.06F  
#THORP 6N N/A 72 49 44 E8 30.08F  

 
 
WAZ027-262110-  
YAKIMA VALLEY  
 
CITY SKY/WX TMP DP RH WIND PRES REMARKS
 
SUNNYSIDE AP SUNNY 76 52 43 E5 30.10F  
YAKIMA AIRPORT SUNNY 83 45 26 VRB3 30.11F  
YAKIMA-VAGABOND SUNNY 80 44 28 NW9 30.09F  
#GRANDVIEW N/A 75 50 41 SE1 30.09F  
#MABTON N/A 77 53 43 N2 30.09F  
#NACHES 2SW N/A 79 52 39 SE1 30.15F  
#TERRACE HTS N/A 79 50 36 CALM 30.04F  
#TOPPENISH N/A 76 52 43 CALM 29.99F  
#WHITE SWAN 5E N/A 78 53 42 CALM 30.07F  
#WILEY CITY 3W N/A 79 43 28 CALM 30.08F  

 
 
WAZ028-262110-  
LOWER COLUMBIA BASIN...WASHINGTON  
 
CITY SKY/WX TMP DP RH WIND PRES REMARKS
 
HANFORD MOSUNNY 78 43 29 N6 30.11F  
PASCO SUNNY 77 47 35 N7 30.11F  
PROSSER AWOS N/A 77 50 39 NE9 30.12F  
RICHLAND AWOS SUNNY 79 46 31 NE3 30.09F  
#BENTON CITY N/A 75 49 40 E7 29.98F  
#CONNELL 5N N/A 80 48 33 CALM 30.08F  
#CONNELL 5NW N/A 78 50 38 W6 30.04F  
#ELTOPIA 6NW N/A 74 50 43 CALM 29.08F  
#KAHLOTUS N/A 78 45 31 CALM 30.06F  
#KENNEWICK 3S N/A 74 52 46 CALM 30.10F  
#PATERSON N/A 76 51 42 W2 30.05F  
#SAGEMOOR 2W N/A 73 49 43 N2 29.94F  
#TOUCHET 2S N/A 75 50 41 W3 30.08F  
#WEST PASCO N/A 76 52 43 N2 30.09F  

 
 
WAZ029-262110-  
FOOTHILLS OF THE BLUES...WASHINGTON  
 
CITY SKY/WX TMP DP RH WIND PRES REMARKS
 
WALLA WALLA AP SUNNY 75 44 33 NW6 30.12F  
#CLYDE 6NW N/A 78 45 31 W3 30.05F  
#DAYTON SCHOOL N/A 83 42 24 NE3 30.11F  
#LOWDEN 2SE N/A 75 50 41 W1 30.06F  
#PLEASANT VIEW 1N/A 83 45 26 E2 30.09F  
#PRESCOTT N/A 82 49 32 CALM 30.06F  
#WHITMAN COLLEGEN/A 74 49 41 CALM 30.12F  
#WAITSBURG 5S N/A 81 47 30 SW2 30.15F  
#WALLA WALLA U N/A 76 50 40 CALM 30.08F  
#WHITMAN MISSIONN/A 74 49 41 CALM 30.09F  

 
 
WAZ030-262110-  
BLUE MOUNTAINS...WASHINGTON  
 
CITY SKY/WX TMP DP RH WIND PRES REMARKS
 
#DIXIE 5SE N/A 76 47 36 NE7 30.11F  

 
 
ORZ009-041-WAZ024-262110-  
COLUMBIA RIVER GORGE  
 
CITY SKY/WX TMP DP RH WIND PRES REMARKS
 
HOOD RIVER AP SUNNY 79 46 31 SW3 30.09F  
THE DALLES AP SUNNY 80 44 28 SW5 30.07F  
#ARLINGTON AIRPON/A 77 47 35 NE3 30.07F  
#CELILO DOT N/A 75 49 40 CALM N/A  
#MARYHILL 2W N/A N/A N/A N/A CALM N/A  
#MOSIER 1S N/A 80 36 21 CALM 30.06F  
#MURDOCK N/A 79 48 34 SW2 30.01F  
#RUFUS DOT N/A 75 48 38 NE8 N/A  
#SMITHVILLE N/A 79 49 35 W3 29.99F  
 

 
 
ORZ510-262110-  
NORTH CENTRAL OREGON  
 
CITY SKY/WX TMP DP RH WIND PRES REMARKS
 
#ANTELOPE N/A 84 48 29 W1 29.88F  
#COW CYN RST AREN/A 81 N/A N/A SE5 N/A  
#DUFUR 9E N/A 78 43 29 E12 30.08F  
#GRASS VALLEY 1SN/A 81 43 26 N5 30.07F  
#KENT DOT N/A 83 40 22 N3 N/A  
#MAUPIN SCHOOL N/A 81 51 35 CALM 30.10F  
#SHANIKO 5WSW N/A 83 39 21 N8 N/A  
#TYGH VALLEY 2NEN/A 79 50 36 N3 30.03F  
#WAPANITIA AIRPON/A 81 44 27 CALM 30.05F  
#WASCO DOT N/A 80 48 33 E8 N/A  
#WASCO AIRPORT N/A 78 40 26 E6 N/A  
#WASCO 5NE N/A 78 47 34 N2 30.06F  

 
 
ORZ511-262110-  
CENTRAL OREGON  
 
CITY SKY/WX TMP DP RH WIND PRES REMARKS
 
BEND AIRPORT SUNNY 84 36 18 CALM 30.16F  
MADRAS AIRPORT SUNNY 82 45 27 CALM 30.15F  
PRINEVILLE AP SUNNY 90 34 14 S9 30.15F HX 86  
REDMOND AIRPORT SUNNY 89 29 12 E8 30.15F  
#ASHWOOD SCHOOL N/A 85 42 22 CALM 30.07F  
#BEND 1SW N/A 83 39 21 W2 N/A  
#BEND-AWBREY N/A 86 42 21 S6 30.00F  
#CULVER N/A 79 47 32 CALM 29.97F  
#CULVER 8W N/A 86 32 14 CALM 30.11F  
#LAKE BILLY CHINN/A 82 N/A N/A N3 30.14F  
#MADRAS 4S N/A 78 19 11 N7 30.19F  
#POWELL BUTTE 3EN/A 84 41 22 E7 N/A  
#POWELL BUTTE N/A 88 41 19 CALM 30.02F  
#PRINEVILLE 3N N/A 85 51 31 E5 30.01F  
 

 
 
 
ORZ509-262110-  
EAST SLOPES OF OREGON CASCADES  
 
CITY SKY/WX TMP DP RH WIND PRES REMARKS
 
#BLUE BOX PASS N/A 79 N/A N/A CALM N/A  
#CAMP SHERMAN N/A 90 42 19 CALM 30.09F HX 86  
#LA PINE DOT N/A 83 29 14 S5 N/A  
#LA PINE 4NW N/A 80 44 28 N1 30.10F  
#LAVA BUTTE DOT N/A 84 42 23 CALM N/A  
#SISTERS AIRPOR N/A 82 53 37 CALM 30.17S  
#SISTERS ODOT N/A 80 N/A N/A NE1 N/A  
#SISTERS 3N N/A 80 45 29 CALM 30.14F  
#SUNRIVER N/A 83 40 22 S2 30.08F  
#SUTTLE LK DOT N/A 73 44 35 E5 N/A  
#TUMALO 3W N/A 83 41 23 N8 29.86F  
#WANOGA BUTTE D N/A 72 32 23 SW8 N/A  
 

 
 
ORZ044-262110-  
LOWER COLUMBIA BASIN...OREGON  
 
CITY SKY/WX TMP DP RH WIND PRES REMARKS
 
HERMISTON SUNNY 78 46 32 N3 30.09F  
#BOARDMAN SCHOOLN/A 76 49 39 N1 30.07F  
#BOARDMAN 8SW N/A 77 52 42 N3 30.06F  
#I-84 EX 198 DOTN/A 77 52 42 E8 N/A  
#UMATILLA N/A 81 48 32 CALM 30.00F  

 
 
ORZ507-262110-  
NORTHERN FOOTHILLS OF THE BLUES  
 
CITY SKY/WX TMP DP RH WIND PRES REMARKS
 
PENDLETON AIRPT SUNNY 82 41 23 N9 30.11F  
#ADAMS 3WNW N/A 81 48 32 NE7 30.05F  
#ATHENA N/A 75 46 36 NE7 30.10F  
#CAYUSE N/A 80 51 36 SW6 30.04F  
#HELIX SCHOOL N/A 76 47 36 N1 30.08F  
#HELIX 3N N/A 73 45 37 N10 30.10F  
#HELIX 6SW N/A 81 45 28 CALM 30.10F  
#HOLDMAN 5SE N/A 79 46 31 N2 30.09F  
#HOLDMAN 6E N/A 78 42 28 E7 29.87F  
#M-F GROVE ELEM N/A 72 42 34 CALM 30.09F  
#M-FREEWATER 5SEN/A 75 53 46 N3 30.10F  
#PENDLETON DNTN N/A 85 49 29 CALM 30.10F  
#PDT AQUATIC CTRN/A 62 50 65 W7 30.11F  
#PDT SUNRIDGE N/A 82 47 29 W3 30.10F  
#PENDLETON 7NW N/A 79 53 41 CALM 30.62S  
#PILOT ROCK 1S N/A 79 45 30 N6 30.12F  
#PILOT ROCK N/A 78 48 35 N3 30.13F  
#TUTUILLA N/A 83 47 28 CALM 30.08F  
#WESTON SCHOOL N/A 74 41 30 SE6 29.98F  
 

 
 
ORZ508-262110-  
SOUTHERN FOOTHILLS OF THE BLUES  
 
CITY SKY/WX TMP DP RH WIND PRES REMARKS
 
LEXINGTON SUNNY 79 43 28 N7 30.14F  
#AJAX N/A 76 39 26 N7 27.87F  
#CONDON SCHOOL N/A 80 47 31 NE2 30.09F  
#CONDON 5W N/A 82 38 21 E6 30.14F  
#FOSSIL SCHOOL N/A 88 44 22 S2 30.07F  
#HEPPNER EOC N/A 80 46 30 W3 29.97F  
#HEPPNER 4NE N/A 78 44 30 N5 30.04F  
#LEXINGTON 2SE N/A 81 47 30 N7 30.06F  
#RUGGS 5NE N/A 81 46 29 N3 30.33S  
#RUGGS 2SW N/A 79 44 29 N5 30.04F  
 

 
 
ORZ502-503-262110-  
BLUE MOUNTAINS  
 
CITY SKY/WX TMP DP RH WIND PRES REMARKS
 
MEACHAM SUNNY 82 37 20 E9 30.22F  
#BATTLE MTN DOT N/A 78 43 29 S7 N/A  
#CUTSFORTH PARK N/A 81 44 27 W1 30.00F  
#GREENHORN 9SW N/A 84 41 22 E6 26.39F  
#HARDMAN 10S N/A 78 43 29 S9 30.16F  
#HEPPNER 15SE N/A 86 44 23 SE2 25.74F  
#LADD CYN SMT N/A 75 42 31 SE15 N/A  
#LADD CREEK ODOTN/A 79 44 29 S8 N/A  
#LONG CREEK HS N/A 82 42 24 SW15 30.20F  
#N POWDER DOT N/A 79 41 26 S13 N/A  
#PIKES PEAK N/A 76 51 42 CALM 27.99S  
#TOLLGATE N/A 71 43 36 SW2 30.14F  
#TROY SCHOOL N/A 82 52 35 CALM 29.93F  
#UKIAH N/A 84 46 27 S3 30.01F  
#WESTON 4E N/A 83 46 27 SE2 30.01F  

 
 
ORZ505-262110-  
JOHN DAY BASIN  
 
CITY SKY/WX TMP DP RH WIND PRES REMARKS
 
JOHN DAY SUNNY 87 38 18 S8 30.21F  
#DAYVILLE SCHOOLN/A 84 43 24 CALM 30.10F  
#MITCHELL N/A 86 52 31 CALM 30.29F  
#MITCHELL 8NW N/A 83 39 21 S3 30.20F  
#MONUMENT HS N/A 81 45 28 CALM 30.04F  
#MT. VERNON 5SE N/A 83 41 23 SW6 30.19F  
#SPRAY SCHOOL N/A 87 N/A N/A CALM N/A  

 
 
ORZ506-262110-  
OCHOCO AND JOHN DAY HIGHLANDS  
 
CITY SKY/WX TMP DP RH WIND PRES REMARKS
 
#BUCK CREEK DOT N/A 79 43 28 E10 N/A  
#HORSE RIDGE DO N/A 84 30 14 SE8 N/A  
#KEYES SMT DOT N/A 79 41 26 NE5 N/A  
#PAULINA SCHOOL N/A 81 40 23 E1 N/A  
#PINE MTN OBS N/A 70 34 26 S9 N/A  
#PRAIRIE CITY N/A 86 44 23 CALM 30.37F  
#SENECA N/A 76 N/A N/A NW5 N/A  
#SENECA 9NW N/A 77 40 26 W2 30.15F  

 
 
ORZ049-262110-  
GRANDE RONDE VALLEY  
 
CITY SKY/WX TMP DP RH WIND PRES REMARKS
 
LA GRANDE SUNNY 82 41 23 S20G26 30.19F  
#COVE SCHOOL N/A 84 47 28 N1 30.20F  
#COVE 6NW N/A 82 47 29 S7 30.08F  
#ELGIN 3N N/A 79 38 23 S6 30.16F  
#ELGIN 1E N/A 79 44 29 CALM N/A  
#IMBLER SCHOOL N/A 76 45 33 CALM 30.15F  
#ISLAND CITY 4N N/A 83 57 41 CALM 30.02F  
#LADD CYN DOT N/A 78 46 32 S18 N/A  
#LA GRANDE ELEM N/A 81 44 27 SE6 30.18F  
#UNION 1S N/A 81 44 27 E12 30.12F  

 
 
ORZ050-262110-  
WALLOWA COUNTY  
 
CITY SKY/WX TMP DP RH WIND PRES REMARKS
 
JOSEPH AIRPORT SUNNY 79 41 26 NW5 30.27F  
#IMNAHA SCHOOL N/A 80 47 31 N7 30.13F  
#JOSEPH 3N N/A 74 41 30 CALM 30.25F  
#JOSEPH 3W N/A 75 49 40 NE2 30.11F  
#LOSTINE N/A 76 48 37 CALM 29.95F  
#LOSTINE 3SE N/A 75 45 34 N5 30.20F  
#MT HOWARD 8000 N/A 63 35 35 SW2 30.53F  
#PROMISE 1S N/A 76 48 37 SE5 30.19F  
#WALLOWA SCHOOL N/A 77 46 33 CALM 30.16F  
 

 
 
CLICK HERE TO GO TO PREVIOUS BULLETINS.

The Nexlab OR Page
The Nexlab WA Page Main Text Page